Weather History for Valparaiso, IN

Change the Weather History Date:

Monday, November 19, 2012

  Actual Average Record
Temperature  
Mean Temperature 47 °F 39 °F  
Max Temperature 59 °F 47 °F 61 °F (2007)
Min Temperature 34 °F 32 °F 15 °F (2014)
Degree Days  
Heating Degree Days 18 26  
Month to date heating degree days 446 411  
Since 1 July heating degree days 1013 941  
Cooling Degree Days 0 0  
Month to date cooling degree days 0 0  
Year to date cooling degree days 1054 713  
Moisture  
Dew Point 34 °F    
Average Humidity 62    
Maximum Humidity 79    
Minimum Humidity 44    
Precipitation  
Precipitation T in 0.09 in 0.20 in (1999)
Month to date precipitation 0.27 2.23  
Year to date precipitation 24.18 34.23  
Sea Level Pressure  
Sea Level Pressure 30.26 in    
Wind  
Wind Speed 5 mph (SSE)    
Max Wind Speed 14 mph    
Max Gust Speed 16 mph    
Visibility 10 miles    
Events      
T = Trace of Precipitation, MM = Missing Value Source: NWS Daily Summary

Daily Weather History Graph

Daily Weather History Graph

Search for Another Location

Airport:

Trip Planner

Search our weather history database for the weather conditions in past years. The results will help you decide how hot, cold, wet, or windy it might be!

Date:

Astronomy

Nov. 19, 2012 Rise Set
Actual Time 6:41 AM CST 4:24 PM CST
Civil Twilight 6:11 AM CST 4:54 PM CST
Nautical Twilight 5:38 AM CST 5:28 PM CST
Astronomical Twilight 5:05 AM CST 6:01 PM CST
Moon 11:42 AM CST (11/19) 10:53 PM CST (11/19)
Length of Visible Light 10h 42m
Length of Day
9h 42m
Waxing Crescent, 41% of the Moon is Illuminated
Nov 19
Waxing Crescent
Nov 20
First Quarter
Nov 28
Full
Dec 6
Last Quarter
Dec 13
New

Hourly Weather History & Observations

Time (CST) Temp. Windchill Dew Point Humidity Pressure Visibility Wind Dir Wind Speed Gust Speed Precip Events Conditions
12:53 AM 41.0 °F 39.0 °F 30.9 °F 67% 30.35 in 10.0 mi SE 3.5 mph - N/A   Clear
1:53 AM 37.9 °F - 30.9 °F 76% 30.35 in 10.0 mi Calm Calm - N/A   Clear
2:53 AM 39.9 °F 37.8 °F 30.0 °F 68% 30.32 in 10.0 mi SE 3.5 mph - N/A   Clear
3:53 AM 41.0 °F 39.0 °F 30.0 °F 65% 30.33 in 10.0 mi South 3.5 mph - N/A   Clear
4:53 AM 37.9 °F 35.5 °F 30.0 °F 73% 30.33 in 10.0 mi SE 3.5 mph - N/A   Clear
5:53 AM 36.0 °F - 28.9 °F 76% 30.34 in 10.0 mi Calm Calm - N/A   Clear
6:53 AM 35.1 °F 32.2 °F 28.9 °F 78% 30.32 in 8.0 mi East 3.5 mph - N/A   Clear
7:53 AM 37.0 °F - 30.9 °F 79% 30.33 in 9.0 mi Calm Calm - N/A   Clear
8:53 AM 45.0 °F 41.8 °F 30.9 °F 58% 30.32 in 10.0 mi South 5.8 mph - N/A   Clear
9:53 AM 46.0 °F 42.5 °F 32.0 °F 58% 30.32 in 10.0 mi South 6.9 mph - N/A   Clear
10:53 AM 50.0 °F - 34.0 °F 54% 30.30 in 10.0 mi South 6.9 mph - N/A   Clear
11:53 AM 54.0 °F - 35.1 °F 49% 30.27 in 10.0 mi South 6.9 mph - N/A   Clear
12:53 PM 57.0 °F - 35.1 °F 44% 30.24 in 10.0 mi South 9.2 mph - N/A   Clear
1:53 PM 55.9 °F - 36.0 °F 47% 30.22 in 10.0 mi South 6.9 mph - N/A   Clear
2:53 PM 55.9 °F - 37.0 °F 49% 30.22 in 10.0 mi South 6.9 mph - N/A   Scattered Clouds
3:53 PM 54.0 °F - 37.0 °F 53% 30.21 in 10.0 mi South 5.8 mph - N/A   Clear
4:53 PM 52.0 °F - 37.0 °F 57% 30.19 in 10.0 mi SE 5.8 mph - N/A   Mostly Cloudy
5:53 PM 52.0 °F - 37.0 °F 57% 30.19 in 10.0 mi SSE 8.1 mph - N/A   Overcast
6:53 PM 51.1 °F - 37.0 °F 59% 30.19 in 10.0 mi SSE 10.4 mph - N/A   Overcast
7:53 PM 51.1 °F - 37.0 °F 59% 30.18 in 10.0 mi South 4.6 mph - N/A   Overcast
8:53 PM 50.0 °F - 37.0 °F 61% 30.17 in 10.0 mi SSE 4.6 mph - N/A   Overcast
9:53 PM 50.0 °F - 37.0 °F 61% 30.16 in 9.0 mi South 3.5 mph - N/A   Overcast
10:53 PM 50.0 °F - 37.9 °F 63% 30.14 in 10.0 mi South 3.5 mph - N/A   Overcast
11:53 PM 48.9 °F - 39.0 °F 69% 30.16 in 10.0 mi SW 4.6 mph - 0.00 in   Overcast